SCP
0 0 0 0 0 0 0 0 0 0 0 0 0 0 0 0 0 0 0 0 0 0 0 0 0 -0 -0 -0 -0 -0 -0 -0 0 0 0 -0 -0 -0 -0 -0 -0 -0 0
0 0 0 0 0 0 0 0 0 0 0 0 0 0 0 0 0 0 0 0 0 0 0 0 0 -0 -0 -0 -0 -0 -0 0 0 0 0 0 -0 -0 -0 -0 -0 -0 0
0 0 0 0 0 0 0 0 0 0 0 0 0 0 0 0 0 0 0 0 0 0 0 0 0 0 -0 -0 -0 -0 -0 0 0 0 0 0 -0 -0 -0 -0 -0 -0 -0
0 0 0 0 0 0 0 0 0 0 0 0 0 0 0 0 0 0 0 0 0 0 0 0 0 0 0 -0 -0 -0 -0 0 0 0 0 0 0 -0 -0 -0 -0 -0 -0
0 0 0 0 0 0 0 0 0 0 0 0 0 0 0 0 0 0 0 0 0 0 0 0 0 0 0 0 0 -0 -0 0 0 0 0 0 0 -0 -0 -0 -0 -0 -0
0 0 0 0 0 0 0 0 0 0 0 0 0 0 0 0 0 0 0 0 0 -0 -0 0 0 0 0 0 0 0 -0 0 0 0 0 0 0 0 0 -0 -0 -0 -0
0 0 0 0 0 0 0 0 0 0 0 0 0 0 0 0 0 0 0 0 0 0 0 0 0 0 0 0 0 0 0 0 0 0 0 0 0 0 0 0 -0 -0 0
0 0 0 0 0 0 0 0 0 0 0 0 0 0 0 0 0 0 0 0 0 0 0 0 0 0 0 0 0 0 0 0 0 0 0 0 0 0 0 0 0 -0 0
-0 0 0 0 0 0 0 0 0 0 0 0 0 0 0 0 0 0 0 0 0 0 0 0 0 0 0 0 0 0 0 0 0 0 0 0 0 0 0 0 0 0 0
-0 0 0 0 0 0 0 0 0 0 0 0 0 0 0 0 0 0 0 0 0 0 0 0 0 0 0 0 0 0 0 0 0 0 0 0 0 0 0 0 0 0 0
-0 -0 0 0 0 0 0 0 0 0 0 0 0 0 0 0 0 0 0 0 0 0 0 0 0 0 0 0 0 0 0 0 0 0 0 0 0 0 0 0 0 0 0
0 0 0 0 0 0 0 0 0 0 0 0 0 0 0 0 0 0 0 0 0 0 0 0 0 0 0 0 0 0 0 0 0 0 0 0 0 0 0 0 0 0 0
0 0 0 0 0 0 0 0 0 0 0 0 0 0 0 0 0 0 0 0 0 0 0 0 0 0 0 0 0 0 0 0 0 0 0 0 0 0 0 0 0 0 0
0 0 0 0 0 0 0 0 0 0 0 0 0 0 0 0 0 0 0 0 0 0 0 0 0 0 0 0 0 0 0 0 0 0 0 0 0 0 0 0 0 0 0
0 0 0 0 0 0 0 0 0 0 0 0 0 0 0 0 0 0 0 0 0 0 0 0 0 0 0 0 0 0 0 0 0 0 0 0 0 0 0 0 0 0 0
0 0 0 0 0 0 0 0 0 0 0 0 0 0 0 0 0 0 0 0 0 0 0 0 0 0 0 0 0 0 0 0 0 0 0 0 0 0 0 0 0 0 0
0 0 0 0 0 0 0 0 0 0 0 0 0 0 0 0 0 0 0 0 0 0 0 0 0 0 0 0 0 0 0 0 0 0 0 0 0 0 0 0 0 0 0
0 0 0 0 0 0 0 0 0 0 0 0 0 0 0 0 0 0 0 0 0 0 0 0 0 0 0 0 0 0 0 0 0 0 0 0 0 0 0 0 0 0 0
0 0 0 0 0 0 0 0 0 0 0 0 0 0 0 0 0 0 0 0 0 0 0 0 0 0 0 0 0 0 0 0 0 0 0 0 0 0 0 0 0 0 0
0 0 0 0 0 0 0 0 0 0 0 0 0 0 0 0 0 0 -0 0 0 0 0 0 0 0 0 0 0 0 0 0 0 0 0 0 0 0 0 0 0 0 0
0 0 0 0 0 0 0 0 0 0 0 0 0 0 0 0 0 0 0 0 0 0 0 0 0 0 0 0 0 0 0 0 0 0 0 0 0 0 0 0 0 0 0
0 0 0 0 0 0 0 0 0 0 0 0 0 0 0 0 0 0 0 0 0 0 0 0 0 0 0 0 0 0 0 0 0 0 0 0 0 0 0 0 0 0 0
0 0 0 0 0 0 0 0 0 0 0 0 0 0 0 0 0 0 0 0 0 0 0 0 0 0 0 0 0 0 0 0 0 0 0 0 0 0 0 0 0 0 0
-0 -0 0 0 0 0 0 0 0 0 0 0 0 0 0 0 0 0 0 0 0 0 0 0 0 0 0 0 0 0 0 0 0 0 0 0 0 0 0 0 0 0 0
0 -0 -0 0 0 0 0 0 0 0 0 0 0 0 0 0 0 0 0 0 0 0 0 0 0 0 0 0 0 0 0 0 0 0 0 0 0 0 0 0 0 0 0
0 0 0 -0 -0 0 0 0 0 0 0 0 0 0 0 0 0 0 0 0 0 0 0 0 0 0 0 0 0 0 0 0 0 0 0 0 0 0 0 0 0 0 0
Wind_Speed_500mb
22 15 14 18 19 38 41 40 38 40 46 53 66 50 40 25 24 18 17 15 7 17 24 26 33 33 34 31 27 24 21 26 23 21 22 21 21 23 21 20 18 16 15
21 21 11 21 25 32 54 51 45 42 44 49 46 44 40 32 20 22 21 20 11 20 23 28 27 37 35 31 30 27 23 26 24 21 20 21 19 20 21 19 16 13 12
21 24 13 14 30 35 35 55 54 42 50 46 46 42 42 31 27 22 24 17 19 18 23 31 26 27 36 30 30 28 26 24 24 24 22 23 20 22 22 21 18 14 10
24 19 22 14 20 40 31 58 61 55 49 50 47 42 42 33 32 27 24 19 15 18 27 31 30 33 31 31 23 34 29 29 25 26 24 25 24 23 23 22 20 16 12
31 24 23 20 16 23 37 43 72 27 55 53 47 43 46 37 29 26 27 21 17 20 14 35 38 37 34 29 24 30 30 30 29 29 28 26 26 24 23 21 20 17 14
32 26 24 21 21 18 29 41 62 62 58 58 47 47 58 31 27 32 33 26 21 14 15 35 33 42 34 35 33 29 28 30 30 28 28 27 28 25 25 22 21 20 17
36 35 24 22 21 18 24 34 35 77 66 72 58 40 55 48 38 36 35 37 31 31 24 27 23 42 43 36 38 34 31 32 34 30 31 27 26 27 26 25 23 22 19
44 29 26 24 21 18 20 25 40 21 66 83 79 57 37 44 50 43 43 43 40 31 31 25 23 26 26 37 47 45 36 34 37 32 32 32 28 27 28 27 25 25 23
45 31 28 23 19 19 21 22 18 31 56 70 77 64 36 31 43 40 39 46 42 40 32 32 34 32 33 35 39 46 46 41 42 35 29 33 35 32 31 30 28 27 26
29 41 30 23 22 17 22 20 22 23 41 39 85 94 73 45 53 28 39 47 40 45 40 36 39 34 36 36 40 34 43 46 50 43 34 29 30 33 31 30 30 29 28
27 44 29 28 22 20 17 26 29 21 31 38 56 84 81 64 62 43 34 55 40 48 47 43 37 38 37 35 37 39 42 38 48 50 44 39 34 29 29 30 29 30 30
27 26 30 28 22 21 18 25 39 26 22 43 59 71 79 86 78 74 57 56 62 46 53 46 44 41 38 37 39 40 47 43 43 46 53 48 43 39 34 33 31 31 31
26 26 29 27 22 18 14 17 32 30 25 31 40 55 65 76 70 76 70 60 57 54 50 50 44 48 40 38 37 47 51 39 35 39 45 49 50 47 43 41 39 37 36
23 26 28 26 22 18 13 8 26 35 25 29 40 45 45 63 79 77 84 72 56 53 52 47 52 48 44 39 36 39 41 36 33 33 35 38 39 42 46 45 40 38 41
20 23 25 29 20 15 14 7 12 20 20 16 31 43 54 46 56 64 79 71 49 34 47 50 40 55 47 39 39 44 42 37 36 34 33 32 32 33 34 37 41 41 38
21 21 25 26 17 14 10 7 7 20 24 19 26 34 48 51 34 69 53 47 61 59 49 68 51 37 46 42 43 46 43 42 41 41 39 38 38 38 39 40 40 41 42
23 26 23 21 17 13 6 4 4 4 10 13 9 28 38 44 36 25 41 42 49 69 45 49 74 60 50 47 40 39 40 44 44 49 48 47 47 45 48 51 52 51 49
20 22 24 21 19 14 12 7 5 3 11 11 5 6 24 33 41 34 27 30 33 28 29 38 47 41 44 34 41 50 45 39 43 39 48 47 53 51 51 54 59 62 59
24 22 24 26 23 16 11 12 10 10 3 1 9 12 8 27 37 30 38 21 31 36 32 32 24 39 32 30 33 35 36 45 47 48 42 41 44 49 52 54 54 57 61
24 23 23 25 25 17 14 11 13 11 3 4 2 10 3 4 17 13 37 36 35 35 36 35 33 32 30 27 35 30 35 36 41 45 43 42 41 44 51 53 54 56 57
22 21 21 22 23 21 18 16 11 8 5 5 1 5 14 30 32 32 35 25 32 31 29 26 37 36 30 32 34 35 36 30 30 30 29 24 26 33 35 39 44 53 60
18 17 19 19 20 22 21 15 9 7 4 6 3 5 5 11 18 24 27 27 27 27 32 28 23 21 24 24 26 29 26 23 23 20 27 23 27 29 25 30 28 36 36
19 15 16 17 17 21 20 18 11 10 7 2 6 10 10 9 13 17 26 25 24 22 24 19 29 37 32 26 27 26 16 16 17 15 17 13 18 18 19 18 24 21 26
18 15 14 15 14 18 19 20 22 19 14 10 5 8 13 14 12 17 23 25 27 35 30 23 29 31 27 27 29 35 29 26 25 27 26 25 20 20 16 18 16 18 20
13 13 13 14 12 16 15 14 14 13 15 16 9 6 5 10 14 19 18 23 26 26 26 26 28 29 35 36 39 38 38 33 31 30 27 30 31 31 22 22 25 18 18
12 10 10 12 15 12 11 10 8 6 7 6 7 14 5 6 10 16 20 22 21 20 22 26 25 33 42 37 37 37 36 36 40 42 42 39 37 28 21 11 4 7 6
Wind_Direction_500mb
319 297 230 234 234 219 198 196 209 201 215 208 204 191 173 165 210 223 224 218 177 178 196 187 193 181 181 185 190 191 187 186 183 182 178 161 159 158 157 150 143 136 123
314 303 264 232 231 235 208 202 202 213 220 212 221 179 173 174 194 213 203 206 199 174 194 197 202 195 189 187 187 195 192 185 193 182 181 174 171 165 171 158 152 152 140
320 315 308 254 236 237 228 211 201 206 217 210 213 198 182 185 177 213 187 231 189 180 186 195 185 186 195 198 186 197 200 204 194 190 197 181 186 188 178 169 170 170 165
312 306 326 299 238 233 235 218 211 214 210 212 210 202 204 188 205 213 220 202 195 193 180 194 195 195 201 205 220 203 205 203 197 194 199 193 203 195 188 181 183 182 185
323 308 310 324 284 247 234 230 209 212 208 209 215 219 216 198 210 204 205 214 201 191 200 198 197 205 203 214 218 208 212 204 207 204 215 207 208 203 198 194 198 197 200
332 306 304 323 313 269 249 216 220 225 215 211 201 230 217 207 217 214 208 218 215 193 167 227 211 198 206 213 222 221 229 217 209 206 216 213 218 211 209 208 212 213 210
332 332 301 309 323 301 263 234 219 212 220 208 203 205 201 219 214 225 218 206 207 198 203 228 217 206 208 210 218 222 225 204 215 221 214 228 225 216 221 221 221 227 226
327 333 317 307 320 332 286 247 219 200 215 211 205 215 218 220 222 210 221 207 212 205 195 208 216 210 217 231 223 219 222 205 223 231 217 222 224 222 229 231 229 233 237
326 333 329 296 313 341 324 254 228 178 206 218 211 202 207 215 212 218 217 203 209 209 208 196 198 207 211 226 227 221 218 215 220 232 230 221 222 228 229 234 239 239 240
325 322 336 313 304 326 345 299 247 201 187 199 213 210 206 205 193 203 217 206 206 209 221 217 208 203 213 213 245 249 226 220 209 223 228 235 232 238 239 236 238 244 248
314 317 335 324 298 308 329 348 299 248 196 194 192 209 218 223 210 194 207 208 214 212 219 218 221 216 205 217 218 237 247 243 221 218 221 227 234 240 238 246 242 247 248
334 334 333 323 313 302 315 326 323 284 224 209 214 217 224 215 217 217 218 208 209 211 215 216 218 229 218 214 217 226 242 245 234 224 223 227 231 235 240 243 245 253 253
327 346 329 332 307 311 307 302 294 309 270 216 217 213 228 227 229 216 209 204 205 211 214 219 226 228 222 218 225 221 232 241 235 230 224 226 232 236 239 242 246 250 257
339 322 341 333 309 304 309 299 291 319 286 232 212 210 225 235 227 217 214 205 212 211 207 209 215 220 230 213 224 237 238 231 229 228 230 233 236 239 243 245 248 250 255
340 350 343 339 322 301 285 284 288 317 313 266 223 215 216 223 227 225 223 226 206 196 200 196 203 215 221 220 222 239 236 236 230 230 231 234 238 242 246 250 253 255 256
360 0 346 348 338 331 309 296 283 283 310 313 223 214 203 219 226 219 210 218 227 226 219 212 195 193 212 215 228 238 243 237 238 237 237 238 242 247 251 254 255 256 258
2 359 0 350 1 18 27 284 22 319 330 298 233 206 207 202 194 202 223 236 243 229 218 221 216 226 223 222 218 227 230 240 246 244 243 245 246 249 253 256 257 258 260
18 12 11 13 18 33 41 33 22 125 9 330 59 241 182 199 214 231 241 238 229 226 222 187 198 216 218 219 224 233 235 228 236 245 246 247 249 251 258 260 257 257 258
22 20 24 21 24 33 35 32 27 40 267 15 9 322 96 230 228 231 249 249 222 214 209 203 192 222 216 217 230 234 239 237 237 236 247 248 245 255 262 262 260 259 260
22 19 25 28 15 34 40 42 50 23 10 80 274 280 32 14 230 270 274 253 242 227 229 217 205 216 228 222 234 239 241 241 235 234 243 252 253 260 261 260 261 261 263
14 20 25 28 28 23 39 40 60 17 347 8 56 220 228 260 270 281 280 299 252 254 239 231 213 206 216 219 228 230 238 244 236 231 237 235 250 257 259 262 269 272 264
6 16 24 28 22 23 31 29 25 62 2 291 293 282 245 215 225 238 254 261 274 269 238 229 232 239 236 243 234 238 247 246 244 238 227 227 246 260 273 265 276 277 269
358 5 14 29 17 24 24 28 32 46 36 26 268 255 259 248 237 216 220 223 243 254 254 243 246 242 236 237 239 240 241 248 238 228 222 235 250 275 269 284 285 288 268
352 355 0 10 22 14 24 26 36 22 17 24 3 283 259 251 245 241 241 238 232 229 241 252 252 246 235 237 253 253 252 248 257 254 242 253 261 273 276 293 308 294 285
346 355 350 357 16 347 15 35 52 22 15 7 350 350 297 260 244 237 243 252 250 248 248 225 239 247 245 240 247 251 249 252 251 247 250 254 264 257 259 274 298 308 290
328 340 342 342 341 350 360 7 53 49 29 49 12 343 352 286 238 239 243 239 240 242 237 233 239 237 248 251 241 244 244 239 243 248 254 247 263 261 273 254 259 192 144
Wind_Speed_850mb
22 15 14 18 19 38 41 40 38 40 46 53 66 50 40 25 24 18 17 15 7 17 24 26 33 33 34 31 27 24 21 26 23 21 22 21 21 23 21 20 18 16 15
21 21 11 21 25 32 54 51 45 42 44 49 46 44 40 32 20 22 21 20 11 20 23 28 27 37 35 31 30 27 23 26 24 21 20 21 19 20 21 19 16 13 12
21 24 13 14 30 35 35 55 54 42 50 46 46 42 42 31 27 22 24 17 19 18 23 31 26 27 36 30 30 28 26 24 24 24 22 23 20 22 22 21 18 14 10
24 19 22 14 20 40 31 58 61 55 49 50 47 42 42 33 32 27 24 19 15 18 27 31 30 33 31 31 23 34 29 29 25 26 24 25 24 23 23 22 20 16 12
31 24 23 20 16 23 37 43 72 27 55 53 47 43 46 37 29 26 27 21 17 20 14 35 38 37 34 29 24 30 30 30 29 29 28 26 26 24 23 21 20 17 14
32 26 24 21 21 18 29 41 62 62 58 58 47 47 58 31 27 32 33 26 21 14 15 35 33 42 34 35 33 29 28 30 30 28 28 27 28 25 25 22 21 20 17
36 35 24 22 21 18 24 34 35 77 66 72 58 40 55 48 38 36 35 37 31 31 24 27 23 42 43 36 38 34 31 32 34 30 31 27 26 27 26 25 23 22 19
44 29 26 24 21 18 20 25 40 21 66 83 79 57 37 44 50 43 43 43 40 31 31 25 23 26 26 37 47 45 36 34 37 32 32 32 28 27 28 27 25 25 23
45 31 28 23 19 19 21 22 18 31 56 70 77 64 36 31 43 40 39 46 42 40 32 32 34 32 33 35 39 46 46 41 42 35 29 33 35 32 31 30 28 27 26
29 41 30 23 22 17 22 20 22 23 41 39 85 94 73 45 53 28 39 47 40 45 40 36 39 34 36 36 40 34 43 46 50 43 34 29 30 33 31 30 30 29 28
27 44 29 28 22 20 17 26 29 21 31 38 56 84 81 64 62 43 34 55 40 48 47 43 37 38 37 35 37 39 42 38 48 50 44 39 34 29 29 30 29 30 30
27 26 30 28 22 21 18 25 39 26 22 43 59 71 79 86 78 74 57 56 62 46 53 46 44 41 38 37 39 40 47 43 43 46 53 48 43 39 34 33 31 31 31
26 26 29 27 22 18 14 17 32 30 25 31 40 55 65 76 70 76 70 60 57 54 50 50 44 48 40 38 37 47 51 39 35 39 45 49 50 47 43 41 39 37 36
23 26 28 26 22 18 13 8 26 35 25 29 40 45 45 63 79 77 84 72 56 53 52 47 52 48 44 39 36 39 41 36 33 33 35 38 39 42 46 45 40 38 41
20 23 25 29 20 15 14 7 12 20 20 16 31 43 54 46 56 64 79 71 49 34 47 50 40 55 47 39 39 44 42 37 36 34 33 32 32 33 34 37 41 41 38
21 21 25 26 17 14 10 7 7 20 24 19 26 34 48 51 34 69 53 47 61 59 49 68 51 37 46 42 43 46 43 42 41 41 39 38 38 38 39 40 40 41 42
23 26 23 21 17 13 6 4 4 4 10 13 9 28 38 44 36 25 41 42 49 69 45 49 74 60 50 47 40 39 40 44 44 49 48 47 47 45 48 51 52 51 49
20 22 24 21 19 14 12 7 5 3 11 11 5 6 24 33 41 34 27 30 33 28 29 38 47 41 44 34 41 50 45 39 43 39 48 47 53 51 51 54 59 62 59
24 22 24 26 23 16 11 12 10 10 3 1 9 12 8 27 37 30 38 21 31 36 32 32 24 39 32 30 33 35 36 45 47 48 42 41 44 49 52 54 54 57 61
24 23 23 25 25 17 14 11 13 11 3 4 2 10 3 4 17 13 37 36 35 35 36 35 33 32 30 27 35 30 35 36 41 45 43 42 41 44 51 53 54 56 57
22 21 21 22 23 21 18 16 11 8 5 5 1 5 14 30 32 32 35 25 32 31 29 26 37 36 30 32 34 35 36 30 30 30 29 24 26 33 35 39 44 53 60
18 17 19 19 20 22 21 15 9 7 4 6 3 5 5 11 18 24 27 27 27 27 32 28 23 21 24 24 26 29 26 23 23 20 27 23 27 29 25 30 28 36 36
19 15 16 17 17 21 20 18 11 10 7 2 6 10 10 9 13 17 26 25 24 22 24 19 29 37 32 26 27 26 16 16 17 15 17 13 18 18 19 18 24 21 26
18 15 14 15 14 18 19 20 22 19 14 10 5 8 13 14 12 17 23 25 27 35 30 23 29 31 27 27 29 35 29 26 25 27 26 25 20 20 16 18 16 18 20
13 13 13 14 12 16 15 14 14 13 15 16 9 6 5 10 14 19 18 23 26 26 26 26 28 29 35 36 39 38 38 33 31 30 27 30 31 31 22 22 25 18 18
12 10 10 12 15 12 11 10 8 6 7 6 7 14 5 6 10 16 20 22 21 20 22 26 25 33 42 37 37 37 36 36 40 42 42 39 37 28 21 11 4 7 6
Wind_Direction_850mb
319 297 230 234 234 219 198 196 209 201 215 208 204 191 173 165 210 223 224 218 177 178 196 187 193 181 181 185 190 191 187 186 183 182 178 161 159 158 157 150 143 136 123
314 303 264 232 231 235 208 202 202 213 220 212 221 179 173 174 194 213 203 206 199 174 194 197 202 195 189 187 187 195 192 185 193 182 181 174 171 165 171 158 152 152 140
320 315 308 254 236 237 228 211 201 206 217 210 213 198 182 185 177 213 187 231 189 180 186 195 185 186 195 198 186 197 200 204 194 190 197 181 186 188 178 169 170 170 165
312 306 326 299 238 233 235 218 211 214 210 212 210 202 204 188 205 213 220 202 195 193 180 194 195 195 201 205 220 203 205 203 197 194 199 193 203 195 188 181 183 182 185
323 308 310 324 284 247 234 230 209 212 208 209 215 219 216 198 210 204 205 214 201 191 200 198 197 205 203 214 218 208 212 204 207 204 215 207 208 203 198 194 198 197 200
332 306 304 323 313 269 249 216 220 225 215 211 201 230 217 207 217 214 208 218 215 193 167 227 211 198 206 213 222 221 229 217 209 206 216 213 218 211 209 208 212 213 210
332 332 301 309 323 301 263 234 219 212 220 208 203 205 201 219 214 225 218 206 207 198 203 228 217 206 208 210 218 222 225 204 215 221 214 228 225 216 221 221 221 227 226
327 333 317 307 320 332 286 247 219 200 215 211 205 215 218 220 222 210 221 207 212 205 195 208 216 210 217 231 223 219 222 205 223 231 217 222 224 222 229 231 229 233 237
326 333 329 296 313 341 324 254 228 178 206 218 211 202 207 215 212 218 217 203 209 209 208 196 198 207 211 226 227 221 218 215 220 232 230 221 222 228 229 234 239 239 240
325 322 336 313 304 326 345 299 247 201 187 199 213 210 206 205 193 203 217 206 206 209 221 217 208 203 213 213 245 249 226 220 209 223 228 235 232 238 239 236 238 244 248
314 317 335 324 298 308 329 348 299 248 196 194 192 209 218 223 210 194 207 208 214 212 219 218 221 216 205 217 218 237 247 243 221 218 221 227 234 240 238 246 242 247 248
334 334 333 323 313 302 315 326 323 284 224 209 214 217 224 215 217 217 218 208 209 211 215 216 218 229 218 214 217 226 242 245 234 224 223 227 231 235 240 243 245 253 253
327 346 329 332 307 311 307 302 294 309 270 216 217 213 228 227 229 216 209 204 205 211 214 219 226 228 222 218 225 221 232 241 235 230 224 226 232 236 239 242 246 250 257
339 322 341 333 309 304 309 299 291 319 286 232 212 210 225 235 227 217 214 205 212 211 207 209 215 220 230 213 224 237 238 231 229 228 230 233 236 239 243 245 248 250 255
340 350 343 339 322 301 285 284 288 317 313 266 223 215 216 223 227 225 223 226 206 196 200 196 203 215 221 220 222 239 236 236 230 230 231 234 238 242 246 250 253 255 256
360 0 346 348 338 331 309 296 283 283 310 313 223 214 203 219 226 219 210 218 227 226 219 212 195 193 212 215 228 238 243 237 238 237 237 238 242 247 251 254 255 256 258
2 359 0 350 1 18 27 284 22 319 330 298 233 206 207 202 194 202 223 236 243 229 218 221 216 226 223 222 218 227 230 240 246 244 243 245 246 249 253 256 257 258 260
18 12 11 13 18 33 41 33 22 125 9 330 59 241 182 199 214 231 241 238 229 226 222 187 198 216 218 219 224 233 235 228 236 245 246 247 249 251 258 260 257 257 258
22 20 24 21 24 33 35 32 27 40 267 15 9 322 96 230 228 231 249 249 222 214 209 203 192 222 216 217 230 234 239 237 237 236 247 248 245 255 262 262 260 259 260
22 19 25 28 15 34 40 42 50 23 10 80 274 280 32 14 230 270 274 253 242 227 229 217 205 216 228 222 234 239 241 241 235 234 243 252 253 260 261 260 261 261 263
14 20 25 28 28 23 39 40 60 17 347 8 56 220 228 260 270 281 280 299 252 254 239 231 213 206 216 219 228 230 238 244 236 231 237 235 250 257 259 262 269 272 264
6 16 24 28 22 23 31 29 25 62 2 291 293 282 245 215 225 238 254 261 274 269 238 229 232 239 236 243 234 238 247 246 244 238 227 227 246 260 273 265 276 277 269
358 5 14 29 17 24 24 28 32 46 36 26 268 255 259 248 237 216 220 223 243 254 254 243 246 242 236 237 239 240 241 248 238 228 222 235 250 275 269 284 285 288 268
352 355 0 10 22 14 24 26 36 22 17 24 3 283 259 251 245 241 241 238 232 229 241 252 252 246 235 237 253 253 252 248 257 254 242 253 261 273 276 293 308 294 285
346 355 350 357 16 347 15 35 52 22 15 7 350 350 297 260 244 237 243 252 250 248 248 225 239 247 245 240 247 251 249 252 251 247 250 254 264 257 259 274 298 308 290
328 340 342 342 341 350 360 7 53 49 29 49 12 343 352 286 238 239 243 239 240 242 237 233 239 237 248 251 241 244 244 239 243 248 254 247 263 261 273 254 259 192 144